• în Republica Moldova
  • Lista ţărilor
  • Pe 7 zile
  • Temperatura apei
  • Hartă satelitară
  • Meteo pe hartă
  • Widget-uri
  • user-avatar
    Intrare

    Meteo pe oră la Narotovo

    Astăzi, 23 Octombrie, Marţi

    Timp Temperatura Precipitaţii Vânt Presiune Umiditate
    00:00 +5°C° 0 mm 3 m/s 749 mmHg 89%
    01:00 +4°C° 0 mm 3 m/s 749 mmHg 91%
    02:00 +5°C° 0 mm 2 m/s 748 mmHg 94%
    03:00 +3°C° 0 mm 3 m/s 748 mmHg 94%
    04:00 +3°C° 0 mm 3 m/s 748 mmHg 95%
    05:00 +2°C° 0 mm 3 m/s 748 mmHg 95%
    06:00 +2°C° 0 mm 3 m/s 747 mmHg 94%
    07:00 +2°C° 0 mm 3 m/s 746 mmHg 94%
    08:00 +2°C° 0 mm 3 m/s 746 mmHg 92%
    09:00 +3°C° 0 mm 3 m/s 745 mmHg 87%
    10:00 +4°C° 0 mm 4 m/s 744 mmHg 81%
    11:00 +5°C° 0 mm 4 m/s 743 mmHg 76%
    12:00 +5°C° 0 mm 4 m/s 742 mmHg 75%
    13:00 +6°C° 0 mm 4 m/s 741 mmHg 73%
    14:00 +6°C° 0 mm 5 m/s 740 mmHg 72%
    15:00 +6°C° 0 mm 4 m/s 739 mmHg 74%
    16:00 +5°C° 0 mm 4 m/s 738 mmHg 76%
    17:00 +4°C° 0 mm 4 m/s 737 mmHg 79%
    18:00 +4°C° 0.1 mm 4 m/s 736 mmHg 79%
    19:00 +4°C° 0.1 mm 4 m/s 734 mmHg 80%
    20:00 +3°C° 0.1 mm 5 m/s 733 mmHg 80%
    21:00 +3°C° 0.4 mm 5 m/s 732 mmHg 81%
    22:00 +3°C° 0.4 mm 5 m/s 732 mmHg 82%
    23:00 +3°C° 0.4 mm 5 m/s 731 mmHg 83%

    Mâine, 24 Octombrie, Miercuri

    Timp Temperatura Precipitaţii Vânt Presiune Umiditate
    00:00 +4°C° 0.5 mm 4 m/s 730 mmHg 84%
    01:00 +4°C° 0.5 mm 4 m/s 729 mmHg 85%
    02:00 +4°C° 0.5 mm 4 m/s 728 mmHg 86%
    03:00 +4°C° 0.3 mm 4 m/s 728 mmHg 87%
    04:00 +4°C° 0.3 mm 3 m/s 728 mmHg 88%
    05:00 +4°C° 0.3 mm 3 m/s 727 mmHg 89%
    06:00 +4°C° 0.2 mm 3 m/s 727 mmHg 90%
    07:00 +5°C° 0.2 mm 2 m/s 727 mmHg 90%
    08:00 +5°C° 0.2 mm 2 m/s 727 mmHg 91%
    09:00 +5°C° 0.1 mm 2 m/s 728 mmHg 89%
    10:00 +6°C° 0.1 mm 2 m/s 728 mmHg 88%
    11:00 +6°C° 0.1 mm 2 m/s 729 mmHg 86%
    12:00 +6°C° 0.2 mm 2 m/s 729 mmHg 86%
    13:00 +5°C° 0.2 mm 3 m/s 730 mmHg 85%
    14:00 +5°C° 0.2 mm 3 m/s 730 mmHg 85%
    15:00 +5°C° 0.2 mm 3 m/s 731 mmHg 86%
    16:00 +5°C° 0.2 mm 3 m/s 731 mmHg 87%
    17:00 +4°C° 0.2 mm 4 m/s 732 mmHg 88%
    18:00 +4°C° 0.2 mm 4 m/s 733 mmHg 88%
    19:00 +4°C° 0.2 mm 4 m/s 733 mmHg 87%
    20:00 +4°C° 0.2 mm 4 m/s 734 mmHg 87%
    21:00 +4°C° 0.1 mm 4 m/s 734 mmHg 87%
    22:00 +3°C° 0.1 mm 4 m/s 735 mmHg 87%
    23:00 +3°C° 0.1 mm 4 m/s 735 mmHg 87%

    Poimâine, 25 Octombrie, Joi

    Timp Temperatura Precipitaţii Vânt Presiune Umiditate
    00:00 +3°C° 0 mm 4 m/s 736 mmHg 88%
    01:00 +1°C° 0 mm 4 m/s 736 mmHg 88%
    02:00 +1°C° 0 mm 4 m/s 736 mmHg 88%
    03:00 +1°C° 0 mm 4 m/s 736 mmHg 89%
    04:00 0°C° 0 mm 4 m/s 736 mmHg 91%
    05:00 +1°C° 0 mm 3 m/s 737 mmHg 92%
    06:00 +1°C° 0 mm 3 m/s 737 mmHg 92%
    07:00 +1°C° 0 mm 3 m/s 737 mmHg 92%
    08:00 +1°C° 0 mm 3 m/s 736 mmHg 92%
    09:00 +2°C° 0 mm 3 m/s 736 mmHg 88%
    10:00 +3°C° 0 mm 4 m/s 736 mmHg 83%
    11:00 +4°C° 0 mm 4 m/s 736 mmHg 78%
    12:00 +4°C° 0.1 mm 4 m/s 736 mmHg 75%
    13:00 +4°C° 0.1 mm 4 m/s 736 mmHg 73%
    14:00 +5°C° 0.1 mm 4 m/s 736 mmHg 70%
    15:00 +4°C° 0 mm 3 m/s 736 mmHg 74%
    16:00 +3°C° 0 mm 3 m/s 736 mmHg 79%
    17:00 +3°C° 0 mm 2 m/s 736 mmHg 83%
    18:00 +2°C° 0 mm 2 m/s 736 mmHg 85%
    19:00 +2°C° 0 mm 2 m/s 736 mmHg 87%
    20:00 +2°C° 0 mm 2 m/s 736 mmHg 89%
    21:00 +1°C° 0 mm 2 m/s 736 mmHg 91%
    22:00 +1°C° 0 mm 2 m/s 736 mmHg 92%
    23:00 +1°C° 0 mm 2 m/s 736 mmHg 94%

    26 Octombrie, Vineri

    Timp Temperatura Precipitaţii Vânt Presiune Umiditate
    00:00 +1°C° 0 mm 2 m/s 736 mmHg 94%
    01:00 +1°C° 0 mm 2 m/s 736 mmHg 94%
    02:00 +1°C° 0 mm 2 m/s 737 mmHg 95%
    03:00 +1°C° 0 mm 2 m/s 737 mmHg 95%
    04:00 -1°C° 0 mm 3 m/s 737 mmHg 95%
    05:00 -1°C° 0 mm 3 m/s 737 mmHg 95%
    06:00 -1°C° 0 mm 3 m/s 737 mmHg 94%
    07:00 0°C° 0 mm 3 m/s 737 mmHg 94%
    08:00 0°C° 0 mm 3 m/s 738 mmHg 93%
    09:00 +1°C° 0 mm 3 m/s 738 mmHg 89%
    10:00 +1°C° 0 mm 4 m/s 738 mmHg 85%
    11:00 +1°C° 0 mm 4 m/s 739 mmHg 82%
    12:00 +3°C° 0 mm 4 m/s 739 mmHg 79%
    13:00 +3°C° 0 mm 4 m/s 739 mmHg 76%
    14:00 +4°C° 0 mm 4 m/s 739 mmHg 73%
    15:00 +3°C° 0 mm 3 m/s 740 mmHg 77%
    16:00 +2°C° 0 mm 3 m/s 740 mmHg 81%
    17:00 +3°C° 0 mm 2 m/s 740 mmHg 85%
    18:00 +2°C° 0 mm 2 m/s 740 mmHg 87%
    19:00 +2°C° 0 mm 2 m/s 740 mmHg 89%
    20:00 +2°C° 0 mm 2 m/s 741 mmHg 91%
    21:00 +2°C° 0 mm 2 m/s 741 mmHg 92%
    22:00 +1°C° 0 mm 2 m/s 741 mmHg 93%
    23:00 +1°C° 0 mm 2 m/s 741 mmHg 93%

    27 Octombrie, Sâmbătă

    Timp Temperatura Precipitaţii Vânt Presiune Umiditate
    00:00 +1°C° 0 mm 2 m/s 740 mmHg 92%
    01:00 +1°C° 0 mm 2 m/s 740 mmHg 91%
    02:00 +2°C° 0 mm 2 m/s 739 mmHg 90%
    03:00 +1°C° 0.7 mm 3 m/s 738 mmHg 89%
    04:00 0°C° 0.7 mm 4 m/s 737 mmHg 88%
    05:00 +1°C° 0.7 mm 4 m/s 736 mmHg 88%
    06:00 +1°C° 1.2 mm 4 m/s 735 mmHg 89%
    07:00 +3°C° 1.2 mm 4 m/s 734 mmHg 90%
    08:00 +3°C° 1.2 mm 4 m/s 733 mmHg 91%
    09:00 +4°C° 1.1 mm 4 m/s 733 mmHg 90%
    10:00 +4°C° 1.1 mm 4 m/s 733 mmHg 89%
    11:00 +5°C° 1.1 mm 4 m/s 732 mmHg 89%
    12:00 +5°C° 0.4 mm 4 m/s 733 mmHg 86%
    13:00 +5°C° 0.4 mm 4 m/s 733 mmHg 84%
    14:00 +5°C° 0.4 mm 4 m/s 733 mmHg 81%
    15:00 +5°C° 0.1 mm 4 m/s 733 mmHg 82%
    16:00 +4°C° 0.1 mm 3 m/s 734 mmHg 83%
    17:00 +4°C° 0.1 mm 3 m/s 734 mmHg 84%
    18:00 +4°C° 0 mm 2 m/s 735 mmHg 86%
    19:00 +4°C° 0 mm 2 m/s 735 mmHg 88%
    20:00 +3°C° 0 mm 2 m/s 736 mmHg 91%
    21:00 +2°C° 0.1 mm 3 m/s 737 mmHg 91%
    22:00 +2°C° 0.1 mm 3 m/s 739 mmHg 91%
    23:00 +1°C° 0.1 mm 4 m/s 740 mmHg 91%

    28 Octombrie, Duminică

    Timp Temperatura Precipitaţii Vânt Presiune Umiditate
    00:00 +1°C° 0.2 mm 4 m/s 741 mmHg 90%
    01:00 +1°C° 0.2 mm 4 m/s 743 mmHg 89%
    02:00 0°C° 0.2 mm 4 m/s 744 mmHg 87%
    03:00 +1°C° 0.1 mm 3 m/s 745 mmHg 89%
    04:00 +1°C° 0.1 mm 3 m/s 746 mmHg 90%
    05:00 +2°C° 0.1 mm 2 m/s 747 mmHg 92%
    06:00 +1°C° 0.2 mm 3 m/s 748 mmHg 91%
    07:00 +1°C° 0.2 mm 3 m/s 749 mmHg 91%
    08:00 +1°C° 0.2 mm 3 m/s 750 mmHg 91%
    09:00 +2°C° 0.1 mm 3 m/s 750 mmHg 87%
    10:00 +2°C° 0.1 mm 3 m/s 751 mmHg 83%
    11:00 +3°C° 0.1 mm 3 m/s 752 mmHg 79%
    12:00 +3°C° 0 mm 3 m/s 752 mmHg 77%
    13:00 +3°C° 0 mm 3 m/s 753 mmHg 75%
    14:00 +3°C° 0 mm 3 m/s 753 mmHg 72%
    15:00 +2°C° 0 mm 3 m/s 753 mmHg 77%
    16:00 +2°C° 0 mm 2 m/s 754 mmHg 83%
    17:00 +2°C° 0 mm 1 m/s 754 mmHg 88%
    18:00 +2°C° 0 mm 1 m/s 755 mmHg 89%
    19:00 +1°C° 0 mm 1 m/s 755 mmHg 90%
    20:00 +1°C° 0 mm 1 m/s 756 mmHg 91%
    21:00 +1°C° 0 mm 1 m/s 756 mmHg 92%
    22:00 +1°C° 0 mm 1 m/s 757 mmHg 92%
    23:00 0°C° 0 mm 1 m/s 757 mmHg 93%

    29 Octombrie, Luni

    Timp Temperatura Precipitaţii Vânt Presiune Umiditate
    00:00 0°C° 0 mm 1 m/s 757 mmHg 93%
    01:00 0°C° 0 mm 1 m/s 758 mmHg 93%
    02:00 0°C° 0 mm 1 m/s 758 mmHg 93%
    03:00 0°C° 0 mm 1 m/s 758 mmHg 93%
    04:00 0°C° 0 mm 1 m/s 758 mmHg 93%
    05:00 0°C° 0 mm 1 m/s 758 mmHg 93%
    06:00 0°C° 0 mm 1 m/s 758 mmHg 92%
    07:00 0°C° 0 mm 1 m/s 758 mmHg 91%
    08:00 0°C° 0 mm 1 m/s 759 mmHg 90%
    09:00 +1°C° 0 mm 1 m/s 759 mmHg 88%
    10:00 +1°C° 0 mm 2 m/s 759 mmHg 86%
    11:00 +1°C° 0 mm 2 m/s 759 mmHg 84%
    12:00 +1°C° 0 mm 2 m/s 759 mmHg 83%
    13:00 +2°C° 0 mm 2 m/s 759 mmHg 83%
    14:00 +2°C° 0 mm 2 m/s 759 mmHg 82%
    15:00 +1°C° 0.1 mm 3 m/s 758 mmHg 84%
    16:00 0°C° 0.1 mm 3 m/s 758 mmHg 86%
    17:00 0°C° 0.1 mm 3 m/s 758 mmHg 88%
    18:00 0°C° 0.4 mm 3 m/s 758 mmHg 89%
    19:00 -1°C° 0.4 mm 4 m/s 758 mmHg 89%
    20:00 -1°C° 0.4 mm 4 m/s 758 mmHg 90%
    21:00 -1°C° 0.7 mm 4 m/s 757 mmHg 90%
    22:00 -1°C° 0.7 mm 5 m/s 757 mmHg 89%
    23:00 -1°C° 0.7 mm 5 m/s 756 mmHg 89%
    Arată mai mult